This demonstration page uses our WeatherBlox Daily Observations layout. Learn more.

Left ArrowRight Arrow

38.20091, -84.87328

Hourly Observations for February 17, 2022

Temp ( °F °C ) Dew Point ( °F °C ) Humidity (%) Winds ( mph kmh ) Pressure ( in mb ) Visibility ( mi km ) Precip ( " mm )
12:53 am 00:53 Mostly Cloudy 59 15 45 7.2 60 60 S 13 20 30.04 1017 10 16 0.00 0.00
1:53 am 01:53 Cloudy 59 15 45 7.2 60 60 SSE 9 15 30.02 1017 10 16 0.00 0.00
2:53 am 02:53 Mostly Cloudy 59 15 45 7.2 60 60 S 10 17 29.99 1016 10 16 0.00 0.00
3:53 am 03:53 Mostly Clear 61 16.1 46 7.8 58 58 S 14 22 29.93 1013 10 16 0.00 0.00
4:53 am 04:53 Clear 63 17.2 45 7.2 52 52 S 18 30 29.90 1013 10 16 0.00 0.00
5:53 am 05:53 Cloudy 64 17.8 46 7.8 52 52 S 23 37 29.89 1012 10 16 0.00 0.00
6:53 am 06:53 Cloudy with Light Rain 61 16.1 50 10 67 67 S 21 33 29.88 1012 9 14 0.02 0.51
7:53 am 07:53 Cloudy with Light Rain 60 15.6 51 10.6 72 72 SSW 20 31 29.88 1012 10 16 0.03 0.76
8:53 am 08:53 Cloudy with Light Rain 59 15 52 11.1 78 78 S 12 19 29.86 1011 10 16 0.04 1.02
9:16 am 09:16 Cloudy with Rain 58 14.4 53 11.7 84 84 W 6 9 29.89 1012 2 3 0.06 1.52
9:28 am 09:28 Cloudy with Light Rain 57 13.9 53 11.7 87 87 NW 9 15 29.91 1013 4 6 0.09 2.29
9:41 am 09:41 Cloudy with Heavy Rain 56 13.3 54 12.2 93 93 NW 9 15 29.91 1013 2 3 0.15 3.81
9:53 am 09:53 Cloudy with Light Rain 56 13.3 54 12.2 93 93 NW 9 15 29.91 1013 2 3 0.19 4.83
10:02 am 10:02 Cloudy with Rain 55 12.8 54 12.2 96 96 NW 8 13 29.91 1013 3 5 0.02 0.51
10:17 am 10:17 Cloudy with Light Rain 55 12.8 54 12.2 96 96 Calm 29.90 1013 5 8 0.03 0.76
10:53 am 10:53 Cloudy with Light Rain 55 12.8 54 12.2 96 96 Calm 29.86 1011 3 4 0.07 1.78
11:31 am 11:31 Cloudy with Rain 55 12.8 54 12.2 96 96 Calm 29.85 1011 2 3 0.10 2.54
11:53 am 11:53 Cloudy with Heavy Rain 55 12.8 54 12.2 96 96 Calm 29.83 1010 1 2 0.18 4.57
12:27 pm 12:27 Cloudy with Rain 55 12.8 54 12.2 96 96 ESE 5 7 29.80 1009 2 3 0.13 3.30
12:38 pm 12:38 Cloudy with Rain 55 12.8 54 12.2 96 96 ESE 6 9 29.79 1009 2 3 0.16 4.06
12:53 pm 12:53 Cloudy with Light Rain 55 12.8 54 12.2 96 96 SE 7 11 29.76 1008 2 3 0.19 4.83
1:05 pm 13:05 Cloudy with Rain 55 12.8 54 12.2 96 96 SE 8 13 29.76 1008 2 3 0.03 0.76
1:25 pm 13:25 Cloudy with Light Rain 55 12.8 54 12.2 96 96 SE 9 15 29.72 1006 2 3 0.04 1.02
1:33 pm 13:33 Cloudy with Light Rain 55 12.8 54 12.2 96 96 SE 7 11 29.71 1006 3 4 0.05 1.27
1:42 pm 13:42 Cloudy with Light Rain 55 12.8 55 12.8 100 100 SE 8 13 29.69 1005 4 6 0.05 1.27
1:50 pm 13:50 Cloudy with Light Rain 55 13 55 13 100 100 SE 8 13 29.68 1005 4 6 0.06 1.52
1:53 pm 13:53 Cloudy with Light Rain 55 12.8 55 12.8 100 100 SE 9 15 29.67 1005 3 5 0.06 1.52
2:15 pm 14:15 Cloudy with Light Rain 56 13.3 55 12.8 97 97 SSE 8 13 29.66 1004 4 6 0.02 0.51
2:22 pm 14:22 Cloudy with Heavy Rain 57 13.9 55 12.8 93 93 S 8 13 29.65 1004 2 3 0.07 1.78
2:32 pm 14:32 Cloudy with Rain 57 13.9 56 13.3 96 96 S 12 19 29.64 1004 3 4 0.11 2.79
2:53 pm 14:53 Cloudy with Heavy Rain 58 14.4 57 13.9 97 97 S 12 19 29.59 1002 2 2 0.24 6.10
3:03 pm 15:03 Cloudy with Rain 59 15 57 13.9 93 93 S 13 20 29.57 1001 2 3 0.05 1.27
3:21 pm 15:21 Cloudy with Heavy Rain 60 15.6 58 14.4 93 93 S 18 30 29.55 1001 2 3 0.14 3.56
3:24 pm 15:24 Cloudy with Rain 60 15.6 58 14.4 93 93 S 20 31 29.55 1001 2 3 0.15 3.81
3:34 pm 15:34 Cloudy with Rain 60 15.6 58 14.4 93 93 S 18 30 29.54 1000 2 3 0.20 5.08
3:41 pm 15:41 Cloudy with Heavy Rain 60 15.6 58 14.4 93 93 S 17 28 29.55 1001 2 3 0.25 6.35
3:53 pm 15:53 Cloudy with Heavy Rain 60 15.6 58 14.4 93 93 S 13 20 29.56 1001 2 3 0.31 7.87
3:57 pm 15:57 Cloudy with Heavy Rain 60 15.6 58 14.4 93 93 SSW 12 19 29.56 1001 2 3 0.03 0.76
4:05 pm 16:05 Cloudy with Heavy Rain 60 15.6 58 14.4 93 93 SW 9 15 29.56 1001 1 2 0.11 2.79
4:12 pm 16:12 Cloudy with Heavy Rain 60 15.6 58 14.4 93 93 SW 9 15 29.55 1001 1 2 0.19 4.83
4:25 pm 16:25 Cloudy with Heavy Rain 60 15.6 59 15 96 96 S 10 17 29.53 1000 1 1 0.36 9.14
4:29 pm 16:29 Cloudy with Heavy Rain 60 15.6 59 15 96 96 S 14 22 29.52 1000 1 2 0.38 9.65
4:36 pm 16:36 Cloudy with Heavy Rain 61 16.1 59 15 93 93 S 14 22 29.51 999 2 3 0.42 10.67
4:48 pm 16:48 Cloudy with Heavy Rain 61 16 59 15 94 94 S 14 22 29.48 998 2 2 0.51 12.95
4:53 pm 16:53 Cloudy with Heavy Rain 61 16.1 59 15 93 93 S 18 30 29.47 998 2 3 0.54 13.72
4:58 pm 16:58 Cloudy with Rain 61 16.1 59 15 93 93 S 17 28 29.47 998 2 3 0.02 0.51
5:06 pm 17:06 Cloudy with Rain 61 16.1 59 15 93 93 S 18 30 29.47 998 3 4 0.05 1.27
5:15 pm 17:15 Cloudy with Light Rain 61 16.1 59 15 93 93 S 18 30 29.46 998 4 6 0.07 1.78
5:27 pm 17:27 Cloudy with Rain 62 16.7 59 15 90 90 SSW 18 30 29.49 999 3 4 0.10 2.54
5:34 pm 17:34 Cloudy with Rain 62 16.7 59 15 90 90 SW 16 26 29.50 999 2 3 0.17 4.32
5:39 pm 17:39 Cloudy with Heavy Rain 62 16.7 60 15.6 93 93 SSW 18 30 29.49 999 1 2 0.22 5.59
5:46 pm 17:46 Cloudy with Heavy Rain 62 16.7 60 15.6 93 93 SSW 18 30 29.48 998 1 2 0.28 7.11
5:53 pm 17:53 Cloudy with Rain 62 16.7 60 15.6 93 93 SW 13 20 29.48 998 2 3 0.31 7.87
6:06 pm 18:06 Cloudy with Heavy Rain 62 16.7 60 15.6 93 93 W 12 19 29.51 999 2 3 0.09 2.29
6:08 pm 18:08 Cloudy with Heavy Rain 62 16.7 60 15.6 93 93 WSW 9 15 29.50 999 2 2 0.15 3.81
6:18 pm 18:18 Cloudy with Light Rain 62 16.7 60 15.6 93 93 SSW 12 19 29.49 999 3 5 0.19 4.83
6:21 pm 18:21 Cloudy with Light Rain 62 16.7 60 15.6 93 93 SW 10 17 29.49 999 5 8 0.19 4.83
6:28 pm 18:28 Cloudy with Light Rain 62 16.7 60 15.6 93 93 SSW 9 15 29.47 998 8 13 0.20 5.08
6:53 pm 18:53 Cloudy with Light Rain 63 17.2 60 15.6 90 90 SSW 15 24 29.48 998 10 16 0.22 5.59
7:02 pm 19:02 Cloudy 63 17.2 60 15.6 90 90 SW 20 31 29.49 999 10 16 0.00 0.00
7:15 pm 19:15 Cloudy 63 17.2 61 16.1 93 93 SW 18 30 29.49 999 10 16 0.00 0.00
7:53 pm 19:53 Cloudy 63 17.2 61 16.1 93 93 SW 15 24 29.49 999 10 16 0.00 0.00
8:16 pm 20:16 Cloudy 63 17.2 60 15.6 90 90 SW 18 30 29.50 999 10 16 0.00 0.00
8:39 pm 20:39 Cloudy with Light Rain 61 16.1 58 14.4 90 90 WNW 30 48 29.54 1000 9 14 0.00 0.00
8:47 pm 20:47 Cloudy with Light Rain 46 8 43 6 87 87 WNW 25 41 29.61 1003 10 16 0.01 0.25
8:53 pm 20:53 Cloudy with Light Rain 43 6.1 40 4.4 89 89 WNW 24 39 29.61 1003 10 16 0.01 0.25
9:17 pm 21:17 Cloudy with Mist and Fog 39 3.9 37 2.8 93 93 WNW 18 30 29.69 1005 6 10 0.00 0.00
9:53 pm 21:53 Cloudy 38 3.3 36 2.2 93 93 WNW 14 22 29.72 1007 7 11 0.00 0.00
10:21 pm 22:21 Cloudy 37 2.8 34 1.1 89 89 WNW 14 22 29.80 1009 10 16 0.00 0.00
10:53 pm 22:53 Cloudy 36 2.2 33 0.6 89 89 NW 14 22 29.81 1009 9 14 0.00 0.00
11:15 pm 23:15 Cloudy with Light Snow 34 1.1 32 0 92 92 WNW 12 19 29.88 1012 3 4 0.00 0.00
11:26 pm 23:26 Cloudy 34 1.1 31 -0.6 89 89 NW 13 20 29.89 1012 9 14 0.00 0.00
11:34 pm 23:34 Cloudy 34 1.1 30 -1.1 85 85 WNW 13 20 29.90 1012 10 16 0.00 0.00
11:53 pm 23:53 Cloudy 34 1.1 30 -1.1 85 85 WNW 14 22 29.88 1012 10 16 0.00 0.00

Powered by AerisWeather